Aktuell
News
Messwerte
Diagramme
Archiv
Vorhersage
Regen
Wettergefahren

Astro & Geo
Gesundheit
Pegel
Gästebuch
Kontakt
Impressum
Datenschutz
App

Stark bewölkt bei 21.2 °C – Luftdruck: 1012.2 hPa – Wind: WSW 6.5 km/h
Messwerte von 10:17 Uhr; Warnsymbol: Datenbasis DWD; Wetterzustand powered by
Übersicht
Heute
Gestern
Vor 1 Jahr
Info
Gestern – Der Tag im Rückblick
 
Messwerte von Samstag, 04.07.2020
Symbol
Zeitpunkt
Wetter-
zustand
Zeitpunkt
Temperatur
gefühlt
Zeitpunkt
Luftfeuchte
Taupunkt
Zeitpunkt
Luftdruck
Zeitpunkt
Wind
Zeitpunkt
Windböen
Max 15 Min.
Wind-
richtung
Zeitpunkt
Regen
Summe 1 h
Regenrate
Max 15 Min.
UV-Index
Max 15 Min.
Pegel Köln
Zeitpunkt
Warnlage
Zeitpunkt
00:15 Stark bewölkt2 17.5 °C
17.5 °C
65 %
10.8 °C
1017.4 hPa 4.7 km/h
1 Bft
14.4 km/h
3 Bft
SSW -
0.0 mm/h
0.0 258 cm
00:30 Stark bewölkt2 17.0 °C
17.0 °C
67 %
10.8 °C
1017.4 hPa 4.7 km/h
1 Bft
11.2 km/h
2 Bft
SSW -
0.0 mm/h
0.0 257 cm
00:45 Stark bewölkt2 16.9 °C
16.9 °C
68 %
10.9 °C
1017.4 hPa 6.5 km/h
2 Bft
11.2 km/h
2 Bft
WSW -
0.0 mm/h
0.0 257 cm
01:00 Stark bewölkt2 16.7 °C
16.7 °C
68 %
10.7 °C
1017.4 hPa 6.5 km/h
2 Bft
11.2 km/h
2 Bft
SW 0.00 mm
0.0 mm/h
0.0 258 cm
01:15 Stark bewölkt2 16.5 °C
16.5 °C
69 %
10.8 °C
1017.4 hPa 6.5 km/h
2 Bft
11.2 km/h
2 Bft
SSW -
0.0 mm/h
0.0 257 cm
01:30 Bedeckt2 16.3 °C
16.3 °C
70 %
10.8 °C
1017.4 hPa 4.7 km/h
1 Bft
9.7 km/h
2 Bft
NW -
0.0 mm/h
0.0 257 cm
01:45 Bedeckt2 16.0 °C
16.0 °C
71 %
10.7 °C
1017.5 hPa 4.7 km/h
1 Bft
14.4 km/h
3 Bft
SSW -
0.0 mm/h
0.0 257 cm
02:00 Bedeckt2 16.0 °C
16.0 °C
71 %
10.7 °C
1017.5 hPa 4.7 km/h
1 Bft
9.7 km/h
2 Bft
SW 0.00 mm
0.0 mm/h
0.0 258 cm
02:15 Bedeckt2 15.9 °C
15.9 °C
71 %
10.6 °C
1017.4 hPa 6.5 km/h
2 Bft
9.7 km/h
2 Bft
SSW -
0.0 mm/h
0.0 257 cm
02:30 Bedeckt2 15.8 °C
15.8 °C
73 %
10.9 °C
1017.5 hPa 3.2 km/h
1 Bft
7.9 km/h
2 Bft
SSW -
0.0 mm/h
0.0 255 cm
02:45 Bedeckt2 15.5 °C
15.5 °C
74 %
10.8 °C
1017.4 hPa 3.2 km/h
1 Bft
11.2 km/h
2 Bft
SSW -
0.0 mm/h
0.0 257 cm
03:00 Bedeckt2 15.4 °C
15.4 °C
74 %
10.7 °C
1017.3 hPa 4.7 km/h
1 Bft
9.7 km/h
2 Bft
SSW 0.00 mm
0.0 mm/h
0.0 256 cm
03:15 Bedeckt2 15.3 °C
15.3 °C
74 %
10.6 °C
1017.3 hPa 4.7 km/h
1 Bft
13.0 km/h
3 Bft
SW -
0.0 mm/h
0.0 255 cm
03:30 Bedeckt2 15.3 °C
15.3 °C
75 %
10.8 °C
1017.2 hPa 3.2 km/h
1 Bft
7.9 km/h
2 Bft
SW -
0.0 mm/h
0.0 255 cm
03:45 Stark bewölkt2 15.1 °C
15.1 °C
76 %
10.8 °C
1017.0 hPa 1.4 km/h
1 Bft
7.9 km/h
2 Bft
SW -
0.0 mm/h
0.0 256 cm
04:00 Stark bewölkt2 15.1 °C
15.1 °C
76 %
10.8 °C
1016.9 hPa 1.4 km/h
1 Bft
6.5 km/h
2 Bft
SSW 0.00 mm
0.0 mm/h
0.0 255 cm
04:15 Stark bewölkt2 15.1 °C
15.1 °C
75 %
10.6 °C
1016.8 hPa 3.2 km/h
1 Bft
7.9 km/h
2 Bft
SSW -
0.0 mm/h
0.0 256 cm
04:30 Stark bewölkt2 14.9 °C
14.9 °C
76 %
10.6 °C
1016.7 hPa 1.4 km/h
1 Bft
7.9 km/h
2 Bft
WSW -
0.0 mm/h
0.0 257 cm
04:45 Stark bewölkt2 14.7 °C
14.7 °C
77 %
10.6 °C
1016.8 hPa 1.4 km/h
1 Bft
7.9 km/h
2 Bft
S -
0.0 mm/h
0.0 255 cm
05:00 Stark bewölkt2 14.5 °C
14.5 °C
77 %
10.4 °C
1016.7 hPa 0.0 km/h
0 Bft
4.7 km/h
1 Bft
SO 0.00 mm
0.0 mm/h
0.0 255 cm
05:15 Stark bewölkt2 14.6 °C
14.6 °C
76 %
10.3 °C
1016.7 hPa 1.4 km/h
1 Bft
6.5 km/h
2 Bft
SO -
0.0 mm/h
0.0 255 cm
05:30 Stark bewölkt2 14.4 °C
14.4 °C
77 %
10.3 °C
1016.6 hPa 3.2 km/h
1 Bft
11.2 km/h
2 Bft
SO -
0.0 mm/h
0.0 255 cm
05:45 Bedeckt2 14.4 °C
14.4 °C
77 %
10.3 °C
1016.6 hPa 1.4 km/h
1 Bft
11.2 km/h
2 Bft
SO -
0.0 mm/h
0.0 255 cm
06:00 Bedeckt2 14.5 °C
14.5 °C
76 %
10.2 °C
1016.4 hPa 1.4 km/h
1 Bft
4.7 km/h
1 Bft
SSO 0.00 mm
0.0 mm/h
0.0 255 cm
06:15 Bedeckt2 14.9 °C
14.9 °C
75 %
10.4 °C
1016.4 hPa 1.4 km/h
1 Bft
9.7 km/h
2 Bft
SO -
0.0 mm/h
0.0 255 cm
06:30 Bedeckt2 15.0 °C
15.0 °C
74 %
10.3 °C
1016.3 hPa 3.2 km/h
1 Bft
13.0 km/h
3 Bft
SO -
0.0 mm/h
0.0 255 cm
06:45 Bedeckt2 15.0 °C
15.0 °C
73 %
10.1 °C
1016.2 hPa 3.2 km/h
1 Bft
13.0 km/h
3 Bft
SO -
0.0 mm/h
0.0 255 cm
07:00 Stark bewölkt2 15.1 °C
15.1 °C
73 %
10.2 °C
1016.3 hPa 3.2 km/h
1 Bft
13.0 km/h
3 Bft
S 0.00 mm
0.0 mm/h
0.0 255 cm
07:15 Leichter Regen2 15.3 °C
15.3 °C
72 %
10.2 °C
1016.2 hPa 4.7 km/h
1 Bft
16.2 km/h
3 Bft
SSW -
0.0 mm/h
0.0 256 cm
07:30 Bedeckt2 15.4 °C
15.4 °C
71 %
10.0 °C
1016.1 hPa 4.7 km/h
1 Bft
14.4 km/h
3 Bft
SSW -
0.0 mm/h
0.0 255 cm
07:45 Bedeckt2 15.6 °C
15.6 °C
71 %
10.2 °C
1016.3 hPa 4.7 km/h
1 Bft
19.4 km/h
3 Bft
SSW -
0.0 mm/h
0.0 255 cm
08:00 Leichter Regen2 15.8 °C
15.8 °C
70 %
10.3 °C
1016.2 hPa 3.2 km/h
1 Bft
13.0 km/h
3 Bft
SSO 0.00 mm
0.0 mm/h
0.9 256 cm
08:15 Bedeckt2 16.4 °C
16.4 °C
70 %
10.9 °C
1016.2 hPa 3.2 km/h
1 Bft
17.6 km/h
3 Bft
S -
0.0 mm/h
1.1 255 cm
08:30 Bedeckt2 17.0 °C
17.0 °C
67 %
10.8 °C
1016.1 hPa 3.2 km/h
1 Bft
11.2 km/h
2 Bft
SSW -
0.0 mm/h
1.1 255 cm
08:45 Bedeckt2 17.3 °C
17.3 °C
67 %
11.1 °C
1016.1 hPa 3.2 km/h
1 Bft
11.2 km/h
2 Bft
SSO -
0.0 mm/h
0.9 255 cm
09:00 Bedeckt2 17.5 °C
17.5 °C
66 %
11.0 °C
1016.1 hPa 3.2 km/h
1 Bft
14.4 km/h
3 Bft
SO 0.00 mm
0.0 mm/h
0.9 255 cm
09:15 Bedeckt2 17.7 °C
17.7 °C
65 %
11.0 °C
1016.1 hPa 3.2 km/h
1 Bft
9.7 km/h
2 Bft
SSW -
0.0 mm/h
1.1 255 cm
09:30 Bedeckt2 18.1 °C
18.1 °C
64 %
11.1 °C
1016.0 hPa 4.7 km/h
1 Bft
14.4 km/h
3 Bft
SSW -
0.0 mm/h
1.4 256 cm
09:45 Bedeckt2 18.3 °C
18.3 °C
61 %
10.6 °C
1015.9 hPa 6.5 km/h
2 Bft
13.0 km/h
3 Bft
SSW -
0.0 mm/h
1.5 257 cm
10:00 Bedeckt2 18.8 °C
18.8 °C
61 %
11.0 °C
1015.7 hPa 6.5 km/h
2 Bft
14.4 km/h
3 Bft
SSW 0.00 mm
0.0 mm/h
2.1 258 cm
10:15 Bedeckt2 18.7 °C
18.7 °C
60 %
10.7 °C
1015.7 hPa 6.5 km/h
2 Bft
14.4 km/h
3 Bft
W -
0.0 mm/h
1.9 257 cm
10:30 Bedeckt2 18.6 °C
18.6 °C
60 %
10.6 °C
1015.7 hPa 7.9 km/h
2 Bft
22.7 km/h
4 Bft
SSW -
0.0 mm/h
1.4 257 cm
10:45 Bedeckt2 18.6 °C
18.6 °C
60 %
10.6 °C
1015.8 hPa 9.7 km/h
2 Bft
20.9 km/h
4 Bft
SSO -
0.0 mm/h
1.4 256 cm
11:00 Bedeckt2 18.7 °C
18.7 °C
60 %
10.7 °C
1015.5 hPa 7.9 km/h
2 Bft
16.2 km/h
3 Bft
SW 0.00 mm
0.0 mm/h
1.6 257 cm
11:15 Bedeckt2 18.8 °C
18.8 °C
60 %
10.8 °C
1015.5 hPa 9.7 km/h
2 Bft
19.4 km/h
3 Bft
SW -
0.0 mm/h
1.8 257 cm
11:30 Wolkig3 19.5 °C
19.5 °C
59 %
11.1 °C
1015.5 hPa 6.5 km/h
2 Bft
17.6 km/h
3 Bft
SSW -
0.0 mm/h
3.1 256 cm
11:45 Wolkig3 19.8 °C
19.8 °C
58 %
11.1 °C
1015.2 hPa 6.5 km/h
2 Bft
20.9 km/h
4 Bft
WSW -
0.0 mm/h
4.6 257 cm
12:00 Wolkig3 20.0 °C
20.0 °C
58 %
11.4 °C
1015.1 hPa 6.5 km/h
2 Bft
22.7 km/h
4 Bft
S 0.00 mm
0.0 mm/h
3.1 257 cm
12:15 Stark bewölkt2 20.7 °C
20.7 °C
57 %
11.8 °C
1015.0 hPa 7.9 km/h
2 Bft
19.4 km/h
3 Bft
S -
0.0 mm/h
7.1 257 cm
12:30 Stark bewölkt2 21.2 °C
21.2 °C
53 %
11.1 °C
1015.0 hPa 11.2 km/h
2 Bft
27.4 km/h
4 Bft
SSW -
0.0 mm/h
6.0 255 cm
12:45 Bedeckt2 20.9 °C
20.9 °C
52 %
10.6 °C
1014.9 hPa 9.7 km/h
2 Bft
22.7 km/h
4 Bft
SW -
0.0 mm/h
4.9 256 cm
13:00 Bedeckt2 20.8 °C
20.8 °C
53 %
10.8 °C
1015.0 hPa 13.0 km/h
3 Bft
27.4 km/h
4 Bft
SW 0.00 mm
0.0 mm/h
2.3 257 cm
13:15 Stark bewölkt3 20.7 °C
20.7 °C
54 %
11.0 °C
1014.9 hPa 7.9 km/h
2 Bft
22.7 km/h
4 Bft
SSW -
0.0 mm/h
2.4 258 cm
13:30 Stark bewölkt3 21.2 °C
21.2 °C
53 %
11.1 °C
1014.7 hPa 6.5 km/h
2 Bft
17.6 km/h
3 Bft
S -
0.0 mm/h
2.8 257 cm
13:45 Bedeckt2 21.2 °C
21.2 °C
53 %
11.1 °C
1014.6 hPa 9.7 km/h
2 Bft
20.9 km/h
4 Bft
SSW -
0.0 mm/h
2.8 258 cm
14:00 Bedeckt2 21.2 °C
21.2 °C
54 %
11.4 °C
1014.7 hPa 9.7 km/h
2 Bft
17.6 km/h
3 Bft
SW 0.00 mm
0.0 mm/h
2.4 257 cm
14:15 Bedeckt2 21.7 °C
21.7 °C
53 %
11.6 °C
1014.5 hPa 7.9 km/h
2 Bft
20.9 km/h
4 Bft
S -
0.0 mm/h
2.8 258 cm
14:30 Bedeckt2 21.7 °C
21.7 °C
53 %
11.6 °C
1014.3 hPa 7.9 km/h
2 Bft
22.7 km/h
4 Bft
SSW -
0.0 mm/h
3.2 257 cm
14:45 Bedeckt2 21.9 °C
21.9 °C
54 %
12.0 °C
1014.2 hPa 11.2 km/h
2 Bft
27.4 km/h
4 Bft
S -
0.0 mm/h
3.0 258 cm
15:00 Leicht bewölkt1 21.7 °C
21.7 °C
57 %
12.7 °C
1014.1 hPa 14.4 km/h
3 Bft
24.1 km/h
4 Bft
SSW 0.00 mm
0.0 mm/h
5.2 258 cm
15:15 Stark bewölkt2 22.0 °C
22.0 °C
55 %
12.4 °C
1014.2 hPa 9.7 km/h
2 Bft
27.4 km/h
4 Bft
S -
0.0 mm/h
5.4 258 cm
15:30 Stark bewölkt2 22.1 °C
22.1 °C
56 %
12.8 °C
1014.1 hPa 13.0 km/h
3 Bft
27.4 km/h
4 Bft
SSW -
0.0 mm/h
1.9 258 cm
15:45 Stark bewölkt2 22.1 °C
22.1 °C
56 %
12.8 °C
1014.1 hPa 9.7 km/h
2 Bft
24.1 km/h
4 Bft
W -
0.0 mm/h
2.6 258 cm
16:00 Bedeckt2 22.2 °C
22.2 °C
57 %
13.2 °C
1013.9 hPa 9.7 km/h
2 Bft
20.9 km/h
4 Bft
SSW 0.00 mm
0.0 mm/h
2.3 258 cm
16:15 Bedeckt2 22.3 °C
22.3 °C
57 %
13.3 °C
1014.1 hPa 9.7 km/h
2 Bft
24.1 km/h
4 Bft
SW -
0.0 mm/h
1.7 259 cm
16:30 Bedeckt2 22.2 °C
22.2 °C
58 %
13.4 °C
1014.1 hPa 9.7 km/h
2 Bft
22.7 km/h
4 Bft
SSO -
0.0 mm/h
1.1 259 cm
16:45 Bedeckt2 22.1 °C
22.1 °C
59 %
13.6 °C
1014.1 hPa 9.7 km/h
2 Bft
27.4 km/h
4 Bft
WSW -
0.0 mm/h
1.1 258 cm
17:00 Bedeckt2 22.1 °C
22.1 °C
60 %
13.9 °C
1014.1 hPa 7.9 km/h
2 Bft
19.4 km/h
3 Bft
NW 0.00 mm
0.0 mm/h
0.8 258 cm
17:15 Bedeckt2 21.8 °C
21.8 °C
61 %
13.9 °C
1014.1 hPa 13.0 km/h
3 Bft
20.9 km/h
4 Bft
S -
0.0 mm/h
1.0 258 cm
17:30 Bedeckt2 21.8 °C
21.8 °C
61 %
13.9 °C
1014.0 hPa 11.2 km/h
2 Bft
22.7 km/h
4 Bft
SSW -
0.0 mm/h
1.4 258 cm
17:45 Stark bewölkt2 21.9 °C
21.9 °C
61 %
14.0 °C
1014.0 hPa 9.7 km/h
2 Bft
20.9 km/h
4 Bft
W -
0.0 mm/h
1.4 259 cm
18:00 Bedeckt2 22.0 °C
22.0 °C
61 %
14.0 °C
1014.1 hPa 7.9 km/h
2 Bft
19.4 km/h
3 Bft
SSW 0.00 mm
0.0 mm/h
1.5 259 cm
18:15 Bedeckt2 21.9 °C
21.9 °C
61 %
14.0 °C
1014.0 hPa 11.2 km/h
2 Bft
24.1 km/h
4 Bft
WSW -
0.0 mm/h
0.9 258 cm
18:30 Stark bewölkt2 21.9 °C
21.9 °C
61 %
14.0 °C
1014.1 hPa 11.2 km/h
2 Bft
22.7 km/h
4 Bft
SSW -
0.0 mm/h
1.0 259 cm
18:45 Stark bewölkt2 21.9 °C
21.9 °C
61 %
14.0 °C
1013.9 hPa 7.9 km/h
2 Bft
17.6 km/h
3 Bft
SSW -
0.0 mm/h
1.0 259 cm
19:00 Stark bewölkt2 21.8 °C
21.8 °C
62 %
14.1 °C
1013.7 hPa 11.2 km/h
2 Bft
22.7 km/h
4 Bft
W 0.00 mm
0.0 mm/h
0.9 259 cm
19:15 Bedeckt2 21.6 °C
21.6 °C
62 %
13.9 °C
1013.8 hPa 7.9 km/h
2 Bft
20.9 km/h
4 Bft
SW -
0.0 mm/h
0.5 258 cm
19:30 Bedeckt2 21.5 °C
21.5 °C
62 %
13.8 °C
1013.7 hPa 11.2 km/h
2 Bft
20.9 km/h
4 Bft
W -
0.0 mm/h
0.0 259 cm
19:45 Bedeckt2 21.4 °C
21.4 °C
62 %
13.7 °C
1013.8 hPa 9.7 km/h
2 Bft
20.9 km/h
4 Bft
SSW -
0.0 mm/h
0.0 258 cm
20:00 Bedeckt2 21.4 °C
21.4 °C
63 %
14.0 °C
1013.8 hPa 7.9 km/h
2 Bft
17.6 km/h
3 Bft
WSW 0.00 mm
0.0 mm/h
0.0 259 cm
20:15 Bedeckt2 21.3 °C
21.3 °C
63 %
13.9 °C
1013.9 hPa 6.5 km/h
2 Bft
16.2 km/h
3 Bft
SSW -
0.0 mm/h
0.0 260 cm
20:30 Bedeckt2 21.2 °C
21.2 °C
64 %
14.0 °C
1014.0 hPa 9.7 km/h
2 Bft
19.4 km/h
3 Bft
SSW -
0.0 mm/h
0.0 259 cm
20:45 Bedeckt2 21.1 °C
21.1 °C
65 %
14.2 °C
1014.0 hPa 9.7 km/h
2 Bft
24.1 km/h
4 Bft
SSW -
0.0 mm/h
0.0 259 cm
21:00 Bedeckt2 20.7 °C
20.7 °C
67 %
14.3 °C
1013.9 hPa 13.0 km/h
3 Bft
20.9 km/h
4 Bft
W 0.00 mm
0.0 mm/h
0.0 259 cm
21:15 Bedeckt2 20.6 °C
20.6 °C
68 %
14.4 °C
1014.0 hPa 11.2 km/h
2 Bft
25.9 km/h
4 Bft
WSW -
0.0 mm/h
0.0 259 cm
21:30 Bedeckt2 20.0 °C
20.0 °C
71 %
14.5 °C
1013.8 hPa 11.2 km/h
2 Bft
28.8 km/h
5 Bft
WSW -
0.0 mm/h
0.0 259 cm
21:45 Stark bewölkt2 20.0 °C
20.0 °C
71 %
14.5 °C
1013.9 hPa 6.5 km/h
2 Bft
16.2 km/h
3 Bft
S -
0.0 mm/h
0.0 259 cm
22:00 Bedeckt2 20.0 °C
20.0 °C
71 %
14.5 °C
1014.0 hPa 6.5 km/h
2 Bft
20.9 km/h
4 Bft
SSW 0.00 mm
0.0 mm/h
0.0 260 cm
22:15 Bedeckt2 20.0 °C
20.0 °C
72 %
14.7 °C
1014.1 hPa 9.7 km/h
2 Bft
20.9 km/h
4 Bft
SW -
0.0 mm/h
0.0 260 cm
22:30 Bedeckt2 20.0 °C
20.0 °C
72 %
14.7 °C
1014.0 hPa 11.2 km/h
2 Bft
24.1 km/h
4 Bft
SSW -
0.0 mm/h
0.0 259 cm
22:45 Bedeckt2 19.8 °C
19.8 °C
74 %
14.9 °C
1014.1 hPa 7.9 km/h
2 Bft
16.2 km/h
3 Bft
SSW -
0.0 mm/h
0.0 259 cm
23:00 Bedeckt2 19.5 °C
19.5 °C
75 %
14.8 °C
1014.0 hPa 6.5 km/h
2 Bft
22.7 km/h
4 Bft
SSW 0.00 mm
0.0 mm/h
0.0 260 cm
23:15 Bedeckt2 19.4 °C
19.4 °C
76 %
14.9 °C
1013.8 hPa 6.5 km/h
2 Bft
14.4 km/h
3 Bft
SSW -
0.0 mm/h
0.0 259 cm
23:30 Bedeckt2 19.4 °C
19.4 °C
76 %
14.9 °C
1013.8 hPa 6.5 km/h
2 Bft
19.4 km/h
3 Bft
SSW -
0.0 mm/h
0.0 259 cm
23:45 Bedeckt2 19.4 °C
19.4 °C
76 %
14.9 °C
1013.6 hPa 6.5 km/h
2 Bft
20.9 km/h
4 Bft
SSW -
0.0 mm/h
0.0 260 cm
00:00 Bedeckt2 19.0 °C
19.0 °C
79 %
15.2 °C
1013.6 hPa 6.5 km/h
2 Bft
19.4 km/h
3 Bft
SW 0.00 mm
0.0 mm/h
0.0 259 cm
Datenbasis Wetterzustand: ¹ Wetterstation Köln-Nippes (Stellwerk), ² powered by , ³ powered by OpenWeatherMap, CC BY-SA 4.0; Warnlage: DWD, Pegelonline, LANUV; Pegel Köln: Pegelonline
 
Extrem- und Durchschnittswerte
  Temperatur Luftfeuchte Luftdruck Wind Windböen Wind-
richtung
Regen UV-Index Pegel Köln KKT
Min

Max

Ø
14.3 °C
05:35 Uhr
22.4 °C
14:47 Uhr
18.9 °C
51.0 %
12:33 Uhr
78.0 %
04:53 Uhr
65.2 %
1013.6 hPa
19:34 Uhr
1017.6 hPa
01:39 Uhr
1015.3 hPa
 
 
16.2 km/h
21:21 Uhr
6.9 km/h
 
 
28.8 km/h
21:16 Uhr
 
 
 
SSW
 
 
 
 
0.00 mm
 
 
 
 
7.1
12:06 Uhr
 
255 cm
02:30 Uhr
260 cm
20:15 Uhr
 
  gefühlt Taupunkt   Wind Windböen   Regenrate Ozon Sonne Mond
Min

Max

Ø
13.8 °C
05:33 Uhr
22.4 °C
14:47 Uhr
 
9.9 °C
07:17 Uhr
15.3 °C
23:49 Uhr
12.0 °C
   
 
3 Bft
21:21 Uhr
6.9 km/h
 
 
5 Bft
21:16 Uhr
 
   
 
0.0 mm/h
00:00 Uhr
 
 
Hürth
69 μg/m³
01:00 Uhr
 
▲ 05:25 Uhr
▼ 21:49 Uhr
▼ 04:25 Uhr
▲ 21:31 Uhr
KKT = Klimatologischer Kenntag: ET = Eistag, FT = Frosttag, KT = Kalter Tag, ST = Sommertag, HT = Hitzetag, TN = Tropennacht, NT = Niederschlagstag, SH = Schneehöhe (Max Tag); Datenbasis Ozon: LANUV, Land NRW, dl-de/by-2-0
 
Detaillierte Warnlage
















04.07.20

04.07.20

04.07.20

04.07.20

04.07.20

04.07.20

04.07.20
Datenbasis: DWD, Pegelonline, LANUV
Es ist ein Fehler aufgetreten.